Flag for Bolivia Weather past 2 weeks in Tarija, Bolivia

Now
63 °F

Clear.


Feels Like: 63 °F
Forecast: 42 / 80 °F
Wind: No wind

Location: Tarija Airport

Current Time: Jul 2, 2015 at 1:05:10 PM

Latest Report: Jul 2, 2015 at 12:00 PM


Visibility: N/A

Pressure: 30.01 "Hg

Humidity: 68%

Dew point: 52 °F

Location of TarijaLocation

Historic Weather in Tarija — Graph

°F

Tarija temperature yesterday

Maximum temperature yesterday: 72 °F (at 3:00 PM)
Minimum temperature yesterday: 46 °F (at 7:00 AM)
Average temperature yesterday: 59 °F

Past Weeks' High & Low Weather Summary

 TemperatureHumidityPressure
High86 °F (Jun 17, 1:00 PM)100% (Jun 18, 7:00 AM)30.45 "Hg (Jun 18, 7:00 AM)
Low34 °F (Jun 20, 7:00 AM)27% (Jun 17, 12:00 PM)29.80 "Hg (Jun 29, 3:00 PM)
Average59 °F70%30.14 "Hg
* Reported Jun 17 12:00 Noon — Jul 2 12:00 Noon, Tarija, Weather by CustomWeather, © 2015

Note: Actual official high and low records may vary slightly from our data, if they occured in-between our weather recording intervals... More about our weather records

Advertising

Tarija weather history for previous 24 hours

 ConditionsComfort  
Time TempWeatherWind HumidityBarometerVisibility
12:00 PM
Thu, Jul 2
63 °FClear.No wind68%30.01 "HgN/A
11:00 AM59 °FClear.No wind72%30.07 "HgN/A
10:00 AM54 °FBroken clouds.No wind82%30.09 "HgN/A
9:00 AM48 °FMore clouds than sun.No wind87%30.09 "HgN/A
8:00 AM45 °FMore clouds than sun.5 mph93%30.07 "HgN/A
7:00 AM43 °FOvercast.5 mph93%30.07 "HgN/A
6:00 AM43 °FBroken clouds.No wind93%30.04 "HgN/A
5:00 AM45 °FPassing clouds.No wind87%30.04 "HgN/A
10:00 PM
Wed, Jul 1
52 °FPassing clouds.No wind88%30.09 "HgN/A
9:00 PM54 °FPassing clouds.No wind88%30.09 "HgN/A
8:00 PM55 °FPartly cloudy.6 mph82%30.04 "HgN/A
7:00 PM57 °FPartly cloudy.12 mph72%30.04 "HgN/A
6:00 PM59 °FPassing clouds.14 mph72%30.01 "HgN/A
5:00 PM63 °FPassing clouds.12 mph68%29.98 "HgN/A
4:00 PM68 °FClear.12 mph56%29.98 "HgN/A
3:00 PM72 °FClear.7 mph53%29.98 "HgN/A
2:00 PM70 °FClear.7 mph53%30.01 "HgN/A
1:00 PM68 °FClear.No wind56%30.07 "HgN/A
Weather by CustomWeather, © 2015

See weather overviewHow to use our weather pages